Time,TemperatureF,DewpointF,PressureIn,WindDirection,WindDirectionDegrees,WindSpeedMPH,WindSpeedGustMPH,Humidity,HourlyPrecipIn,Conditions,Clouds,dailyrainin,SoftwareType,DateUTC
2013-03-06 00:13:00,43.9,43.4,29.89,West,270,3.7,-999.0,98,-99.99,,,0.00,Acu-Link.com,2013-03-06 08:13:00,
2013-03-06 00:28:00,43.7,43.2,29.89,WSW,247,2.7,-999.0,98,-99.99,,,0.00,Acu-Link.com,2013-03-06 08:28:00,
2013-03-06 00:43:00,43.9,43.4,29.90,SSE,157,3.7,-999.0,98,-99.99,,,0.00,Acu-Link.com,2013-03-06 08:43:00,
2013-03-06 00:58:00,43.5,43.0,29.90,South,180,11.9,-999.0,98,-99.99,,,0.00,Acu-Link.com,2013-03-06 08:58:00,
2013-03-06 01:23:00,43.2,42.7,29.90,SW,225,8.9,-999.0,98,-99.99,,,0.00,Acu-Link.com,2013-03-06 09:23:00,
2013-03-06 01:38:00,43.0,42.5,29.88,WNW,292,0.0,-999.0,98,-99.99,,,0.01,Acu-Link.com,2013-03-06 09:38:00,
2013-03-06 01:54:00,42.8,42.3,29.88,SE,135,8.9,-999.0,98,-99.99,,,0.01,Acu-Link.com,2013-03-06 09:54:00,
2013-03-06 02:09:00,42.8,42.3,29.87,SW,225,6.3,-999.0,98,-99.99,,,0.01,Acu-Link.com,2013-03-06 10:09:00,
2013-03-06 02:24:00,42.3,41.8,29.88,SW,225,2.7,-999.0,98,-99.99,,,0.01,Acu-Link.com,2013-03-06 10:24:00,
2013-03-06 02:39:00,41.9,41.4,29.88,West,270,2.7,-999.0,98,-99.99,,,0.01,Acu-Link.com,2013-03-06 10:39:00,
2013-03-06 02:54:00,42.3,41.8,29.89,SSE,157,4.2,-999.0,98,-99.99,,,0.01,Acu-Link.com,2013-03-06 10:54:00,
2013-03-06 03:09:00,41.9,41.4,29.86,SW,225,5.8,-999.0,98,-99.99,,,0.01,Acu-Link.com,2013-03-06 11:09:00,
2013-03-06 03:24:00,42.1,41.6,29.85,WNW,292,5.8,-999.0,98,-99.99,,,0.01,Acu-Link.com,2013-03-06 11:24:00,
2013-03-06 03:39:00,41.9,41.4,29.85,SW,225,7.3,-999.0,98,-99.99,,,0.01,Acu-Link.com,2013-03-06 11:39:00,
2013-03-06 03:55:00,42.3,41.8,29.84,WNW,292,6.3,-999.0,98,-99.99,,,0.01,Acu-Link.com,2013-03-06 11:55:00,
2013-03-06 04:10:00,41.7,41.2,29.87,SE,135,4.2,-999.0,98,-99.99,,,0.01,Acu-Link.com,2013-03-06 12:10:00,
2013-03-06 04:25:00,40.5,40.0,29.87,South,180,6.3,-999.0,98,-99.99,,,0.01,Acu-Link.com,2013-03-06 12:25:00,
2013-03-06 04:40:00,41.5,41.0,29.87,South,180,5.3,-999.0,98,-99.99,,,0.01,Acu-Link.com,2013-03-06 12:40:00,
2013-03-06 04:55:00,41.4,40.9,29.89,WSW,247,8.3,-999.0,98,-99.99,,,0.01,Acu-Link.com,2013-03-06 12:55:00,
2013-03-06 05:10:00,41.5,41.0,29.88,East,90,3.7,-999.0,98,-99.99,,,0.01,Acu-Link.com,2013-03-06 13:10:00,
2013-03-06 05:25:00,41.4,40.9,29.88,NNE,22,3.2,-999.0,98,-99.99,,,0.01,Acu-Link.com,2013-03-06 13:25:00,
2013-03-06 05:40:00,41.2,40.7,29.89,WSW,247,5.3,-999.0,98,-99.99,,,0.01,Acu-Link.com,2013-03-06 13:40:00,
2013-03-06 05:55:00,40.8,40.3,29.90,NW,315,5.8,-999.0,98,-99.99,,,0.01,Acu-Link.com,2013-03-06 13:55:00,
2013-03-06 06:10:00,40.3,39.8,29.91,SW,225,3.7,-999.0,98,-99.99,,,0.01,Acu-Link.com,2013-03-06 14:10:00,
2013-03-06 06:26:00,39.7,39.2,29.91,ENE,67,0.0,-999.0,98,-99.99,,,0.01,Acu-Link.com,2013-03-06 14:26:00,
2013-03-06 06:41:00,38.8,38.3,29.90,ENE,67,0.0,-999.0,98,-99.99,,,0.01,Acu-Link.com,2013-03-06 14:41:00,
2013-03-06 06:56:00,39.2,38.7,29.92,WNW,292,0.0,-999.0,98,-99.99,,,0.01,Acu-Link.com,2013-03-06 14:56:00,
2013-03-06 07:11:00,39.2,38.7,29.91,WNW,292,0.0,-999.0,98,-99.99,,,0.01,Acu-Link.com,2013-03-06 15:11:00,
2013-03-06 07:26:00,40.1,39.6,29.92,NNW,337,0.0,-999.0,98,-99.99,,,0.01,Acu-Link.com,2013-03-06 15:26:00,
2013-03-06 07:41:00,41.7,41.2,29.93,WNW,292,0.0,-999.0,98,-99.99,,,0.01,Acu-Link.com,2013-03-06 15:41:00,
2013-03-06 07:56:00,42.1,41.6,29.93,South,180,0.0,-999.0,98,-99.99,,,0.01,Acu-Link.com,2013-03-06 15:56:00,
2013-03-06 08:11:00,44.1,43.6,29.93,NNW,337,0.0,-999.0,98,-99.99,,,0.01,Acu-Link.com,2013-03-06 16:11:00,
2013-03-06 08:26:00,45.5,45.0,29.94,SW,225,0.0,-999.0,98,-99.99,,,0.01,Acu-Link.com,2013-03-06 16:26:00,
2013-03-06 08:42:00,43.0,42.5,29.92,West,270,0.0,-999.0,98,-99.99,,,0.01,Acu-Link.com,2013-03-06 16:42:00,
2013-03-06 08:57:00,45.0,44.5,29.92,East,90,0.0,-999.0,98,-99.99,,,0.01,Acu-Link.com,2013-03-06 16:57:00,
2013-03-06 09:12:00,45.3,41.1,29.93,NNE,22,2.2,-999.0,85,-99.99,,,0.01,Acu-Link.com,2013-03-06 17:12:00,
2013-03-06 09:27:00,46.4,38.2,29.93,SW,225,0.0,-999.0,73,-99.99,,,0.01,Acu-Link.com,2013-03-06 17:27:00,
2013-03-06 09:42:00,46.0,45.5,29.93,NW,315,0.0,-999.0,98,-99.99,,,0.01,Acu-Link.com,2013-03-06 17:42:00,
2013-03-06 09:57:00,45.5,45.0,29.94,SW,225,2.7,-999.0,98,-99.99,,,0.01,Acu-Link.com,2013-03-06 17:57:00,
2013-03-06 10:12:00,44.1,43.6,29.94,West,270,3.7,-999.0,98,-99.99,,,0.01,Acu-Link.com,2013-03-06 18:12:00,
2013-03-06 10:27:00,44.4,43.9,29.92,SSE,157,0.0,-999.0,98,-99.99,,,0.01,Acu-Link.com,2013-03-06 18:27:00,
2013-03-06 10:42:00,46.2,45.4,29.92,WSW,247,2.7,-999.0,97,-99.99,,,0.01,Acu-Link.com,2013-03-06 18:42:00,
2013-03-06 10:58:00,45.7,45.2,29.92,WNW,292,3.2,-999.0,98,-99.99,,,0.01,Acu-Link.com,2013-03-06 18:58:00,
2013-03-06 11:13:00,42.3,41.8,29.93,WNW,292,3.7,-999.0,98,-99.99,,,0.01,Acu-Link.com,2013-03-06 19:13:00,
2013-03-06 11:28:00,43.0,42.5,29.91,WSW,247,4.2,-999.0,98,-99.99,,,0.01,Acu-Link.com,2013-03-06 19:28:00,
2013-03-06 11:43:00,45.5,45.0,29.91,WNW,292,5.3,-999.0,98,-99.99,,,0.01,Acu-Link.com,2013-03-06 19:43:00,
2013-03-06 11:58:00,49.6,43.7,29.90,SSE,157,2.2,-999.0,80,-99.99,,,0.01,Acu-Link.com,2013-03-06 19:58:00,
2013-03-06 12:13:00,50.0,40.6,29.90,SW,225,4.7,-999.0,70,-99.99,,,0.01,Acu-Link.com,2013-03-06 20:13:00,
2013-03-06 12:28:00,49.8,42.2,29.90,SW,225,7.3,-999.0,75,-99.99,,,0.01,Acu-Link.com,2013-03-06 20:28:00,
2013-03-06 12:43:00,48.2,40.7,29.90,WSW,247,2.2,-999.0,75,-99.99,,,0.01,Acu-Link.com,2013-03-06 20:43:00,
2013-03-06 12:58:00,49.3,39.9,29.90,East,90,4.7,-999.0,70,-99.99,,,0.01,Acu-Link.com,2013-03-06 20:58:00,
2013-03-06 13:14:00,50.2,39.3,29.89,SSW,202,5.3,-999.0,66,-99.99,,,0.01,Acu-Link.com,2013-03-06 21:14:00,
2013-03-06 13:29:00,48.9,38.4,29.89,West,270,7.3,-999.0,67,-99.99,,,0.01,Acu-Link.com,2013-03-06 21:29:00,
2013-03-06 13:44:00,47.3,40.8,29.89,West,270,3.7,-999.0,78,-99.99,,,0.01,Acu-Link.com,2013-03-06 21:44:00,
2013-03-06 13:59:00,48.2,40.3,29.89,SW,225,5.8,-999.0,74,-99.99,,,0.01,Acu-Link.com,2013-03-06 21:59:00,
2013-03-06 14:14:00,46.4,41.8,29.88,NNW,337,2.7,-999.0,84,-99.99,,,0.01,Acu-Link.com,2013-03-06 22:14:00,
2013-03-06 14:29:00,48.2,41.0,29.88,SSE,157,5.8,-999.0,76,-99.99,,,0.01,Acu-Link.com,2013-03-06 22:29:00,
2013-03-06 14:45:00,49.1,40.1,29.88,SSW,202,2.7,-999.0,71,-99.99,,,0.01,Acu-Link.com,2013-03-06 22:45:00,
2013-03-06 15:00:00,47.5,40.7,29.88,West,270,4.7,-999.0,77,-99.99,,,0.01,Acu-Link.com,2013-03-06 23:00:00,
2013-03-06 15:15:00,46.0,41.7,29.88,West,270,5.3,-999.0,85,-99.99,,,0.01,Acu-Link.com,2013-03-06 23:15:00,
2013-03-06 15:30:00,45.5,42.2,29.88,West,270,3.2,-999.0,88,-99.99,,,0.01,Acu-Link.com,2013-03-06 23:30:00,
2013-03-06 15:45:00,44.8,44.3,29.87,South,180,5.8,-999.0,98,-99.99,,,0.01,Acu-Link.com,2013-03-06 23:45:00,
2013-03-06 16:00:00,43.7,43.2,29.86,SSW,202,2.7,-999.0,98,-99.99,,,0.01,Acu-Link.com,2013-03-07 00:00:00,
2013-03-06 16:16:00,43.2,42.7,29.85,SSW,202,4.7,-999.0,98,-99.99,,,0.01,Acu-Link.com,2013-03-07 00:16:00,
2013-03-06 16:31:00,42.8,42.3,29.86,WSW,247,1.1,-999.0,98,-99.99,,,0.01,Acu-Link.com,2013-03-07 00:31:00,
2013-03-06 16:46:00,41.9,41.4,29.85,SW,225,2.7,-999.0,98,-99.99,,,0.01,Acu-Link.com,2013-03-07 00:46:00,
2013-03-06 17:01:00,42.4,41.9,29.86,SSW,202,4.2,-999.0,98,-99.99,,,0.01,Acu-Link.com,2013-03-07 01:01:00,
2013-03-06 17:16:00,41.7,41.2,29.86,WSW,247,5.8,-999.0,98,-99.99,,,0.01,Acu-Link.com,2013-03-07 01:16:00,
2013-03-06 17:31:00,40.8,40.3,29.85,SW,225,0.0,-999.0,98,-99.99,,,0.01,Acu-Link.com,2013-03-07 01:31:00,
2013-03-06 17:47:00,40.6,40.1,29.85,West,270,2.2,-999.0,98,-99.99,,,0.01,Acu-Link.com,2013-03-07 01:47:00,
2013-03-06 18:02:00,40.1,39.6,29.84,SE,135,0.0,-999.0,98,-99.99,,,0.01,Acu-Link.com,2013-03-07 02:02:00,
2013-03-06 18:17:00,40.1,39.6,29.85,SW,225,2.7,-999.0,98,-99.99,,,0.01,Acu-Link.com,2013-03-07 02:17:00,
2013-03-06 18:32:00,39.9,39.4,29.85,North,0,3.2,-999.0,98,-99.99,,,0.01,Acu-Link.com,2013-03-07 02:32:00,
2013-03-06 18:47:00,40.3,39.8,29.85,WSW,247,0.0,-999.0,98,-99.99,,,0.01,Acu-Link.com,2013-03-07 02:47:00,
2013-03-06 19:02:00,41.0,40.5,29.86,South,180,1.1,-999.0,98,-99.99,,,0.01,Acu-Link.com,2013-03-07 03:02:00,
2013-03-06 19:17:00,41.2,40.7,29.87,South,180,4.2,-999.0,98,-99.99,,,0.01,Acu-Link.com,2013-03-07 03:17:00,
2013-03-06 19:32:00,41.5,41.0,29.85,SW,225,4.7,-999.0,98,-99.99,,,0.01,Acu-Link.com,2013-03-07 03:32:00,
2013-03-06 19:47:00,42.3,41.8,29.85,ESE,112,1.7,-999.0,98,-99.99,,,0.01,Acu-Link.com,2013-03-07 03:47:00,
2013-03-06 20:02:00,42.3,41.8,29.84,NW,315,1.1,-999.0,98,-99.99,,,0.01,Acu-Link.com,2013-03-07 04:02:00,
2013-03-06 20:18:00,42.4,41.9,29.84,South,180,2.7,-999.0,98,-99.99,,,0.01,Acu-Link.com,2013-03-07 04:18:00,
2013-03-06 20:33:00,42.1,41.6,29.84,SE,135,6.8,-999.0,98,-99.99,,,0.01,Acu-Link.com,2013-03-07 04:33:00,
2013-03-06 20:48:00,40.6,40.1,29.84,SSE,157,5.3,-999.0,98,-99.99,,,0.01,Acu-Link.com,2013-03-07 04:48:00,
2013-03-06 21:03:00,40.5,40.0,29.84,SW,225,3.2,-999.0,98,-99.99,,,0.01,Acu-Link.com,2013-03-07 05:03:00,
2013-03-06 21:18:00,40.5,40.0,29.83,WSW,247,5.8,-999.0,98,-99.99,,,0.01,Acu-Link.com,2013-03-07 05:18:00,
2013-03-06 21:33:00,40.5,40.0,29.83,SW,225,8.3,-999.0,98,-99.99,,,0.01,Acu-Link.com,2013-03-07 05:33:00,
2013-03-06 21:49:00,40.5,40.0,29.82,SSW,202,3.7,-999.0,98,-99.99,,,0.01,Acu-Link.com,2013-03-07 05:49:00,
2013-03-06 22:04:00,40.1,39.6,29.82,West,270,7.8,-999.0,98,-99.99,,,0.01,Acu-Link.com,2013-03-07 06:04:00,
2013-03-06 22:19:00,40.1,39.6,29.81,SW,225,5.8,-999.0,98,-99.99,,,0.01,Acu-Link.com,2013-03-07 06:19:00,
2013-03-06 22:34:00,40.3,39.8,29.82,South,180,6.8,-999.0,98,-99.99,,,0.01,Acu-Link.com,2013-03-07 06:34:00,
2013-03-06 22:49:00,41.2,40.7,29.82,South,180,5.3,-999.0,98,-99.99,,,0.01,Acu-Link.com,2013-03-07 06:49:00,
2013-03-06 23:04:00,41.2,40.7,29.81,WSW,247,3.7,-999.0,98,-99.99,,,0.02,Acu-Link.com,2013-03-07 07:04:00,
2013-03-06 23:19:00,41.9,41.4,29.81,SW,225,6.8,-999.0,98,-99.99,,,0.02,Acu-Link.com,2013-03-07 07:19:00,
2013-03-06 23:34:00,42.3,41.8,29.82,SSW,202,5.8,-999.0,98,-99.99,,,0.02,Acu-Link.com,2013-03-07 07:34:00,
2013-03-06 23:49:00,41.4,40.9,29.81,NNW,337,7.8,-999.0,98,-99.99,,,0.03,Acu-Link.com,2013-03-07 07:49:00,